100LL.CA
Aviation Fuel Pricing for Canadians
Please upgrade your browser - Tested with IE9, FireFox, Chrome, Safari

Fuel Airports Other Help
Prices Economy Info List METAR/TAF Kneeboard Help

Reference Airport: CALGARY/SPRINGBANK, AB
N 51 06 19  W 114 22 17
Provinces to show:

CYBW CALGARY/SPRINGBANK, AB
WEATHER
METARCYBW 131844Z AUTO 28017G23KT 240V340 9SM CLR 14/M07 A2980 RMK SLP093 DENSITY ALT 4900FT
TAFTAF CYBW 131740Z 1318/1404 26010G20KT P6SM FEW120 SCT250 BECMG 1319/1321 26015G25KT FM140100 29012KT P6SM FEW250 RMK FCST BASED ON AUTO OBS. NXT FCST BY 140000Z
OTHER SITES

FlightAware

FltPlan

Google Maps

SkyVector
FUEL
FBO 100LL
member
100LL
public
JETA MOGAS
Springbank Aero Services (2023-11-22)2.8452.050
  Note: http://springbank.aero/
Territorial Fuel Sales (2023-08-09)2.6802.200
  Note: Self-serve tanks at end of TWY E (formerly Central Aviation)
Calgary Flying Club (2024-03-11)2.1502.400
  Note: Discounts for CFC members
Canada Flight Supplement - CYBW
(opens in new tab/window)


Please Send Updates!

Desktop Version ]  [ Mobile Version ]  [ Disclaimer ]